Weather History for MZBZ - October, 2010

Change the Weather History Date:

Thursday, October 28, 2010

  Actual Average Record
Temperature  
Mean Temperature 84 °F -  
Max Temperature 87 °F 85 °F 91 °F (2011)
Min Temperature 80 °F 71 °F 69 °F (1999)
Cooling Degree Days 18    
Growing Degree Days 34 (Base 50)    
Moisture  
Dew Point 77 °F    
Average Humidity 77    
Maximum Humidity 89    
Minimum Humidity 62    
Precipitation  
Precipitation 0.00 in 0.25 in - ()
Sea Level Pressure  
Sea Level Pressure 29.95 in    
Wind  
Wind Speed 7 mph ()    
Max Wind Speed 13 mph    
Max Gust Speed -    
Visibility 7.9 miles    
Events      
Averages and records for this station are not official NWS values.
T = Trace of Precipitation, MM = Missing Value Source: Averaged Metar Reports

Daily Weather History Graph

Daily Weather History Graph

Search for Another Location

Airport or City:

Trip Planner

Search our weather history database for the weather conditions in past years. The results will help you decide how hot, cold, wet, or windy it might be!

Date:

Astronomy

Oct. 28, 2010 Rise Set
Actual Time 5:50 AM CST 5:23 PM CST
Civil Twilight 5:28 AM CST 5:45 PM CST
Nautical Twilight 5:02 AM CST 6:11 PM CST
Astronomical Twilight 4:36 AM CST 6:36 PM CST
Moon 10:15 PM CST 10:46 AM CST
Length of Visible Light 12h 17m
Length of Day
11h 33m
Waning Gibbous, 69% of the Moon is Illuminated
Oct 28
Waning Gibbous
Oct 30
Last Quarter
Nov 5
New
Nov 13
First Quarter
Nov 21
Full

Hourly Weather History & Observations

Time (CST) Temp. Heat Index Dew Point Humidity Pressure Visibility Wind Dir Wind Speed Gust Speed Precip Events Conditions
12:00 AM 81 °F - 78 °F 87% 29.96 in 12 mi ESE 4.6 mph - -  
12:00 AM 80.6 °F 87.1 °F 77.0 °F 89% 29.95 in 6.2 mi ESE 4.6 mph - N/A   Partly Cloudy
3:00 AM 81 °F - 77 °F 85% 29.93 in 12 mi East 4.6 mph - -   Partly Cloudy
3:00 AM 80.6 °F 87.1 °F 77.0 °F 89% 29.92 in 6.2 mi East 4.6 mph - N/A   Scattered Clouds
6:00 AM 81 °F - 77 °F 85% 29.96 in 12 mi East 4.6 mph - -  
6:00 AM 80.6 °F 87.1 °F 77.0 °F 89% 29.95 in 6.2 mi East 4.6 mph - N/A   Mostly Cloudy
7:00 AM 82.4 °F 92.4 °F 78.8 °F 89% 29.98 in 6.2 mi East 5.8 mph - N/A   Mostly Cloudy
8:00 AM 86.0 °F 99.3 °F 78.8 °F 79% 30.01 in 6.2 mi East 9.2 mph - N/A   Scattered Clouds
9:00 AM 86 °F - 78 °F 72% 30.02 in 12 mi East 10.4 mph - -   Partly Cloudy
9:00 AM 86.0 °F 99.3 °F 78.8 °F 79% 30.01 in 6.2 mi East 10.4 mph - N/A   Scattered Clouds
10:00 AM 87.8 °F 99.7 °F 77.0 °F 70% 30.01 in 6.2 mi ENE 11.5 mph - N/A   Mostly Cloudy
11:00 AM 86.0 °F 96.9 °F 77.0 °F 74% 29.99 in 6.2 mi ENE 10.4 mph - N/A   Mostly Cloudy
12:00 PM 87 °F - 76 °F 62% 29.97 in 12 mi ENE 12.7 mph - -  
12:00 PM 87.8 °F 97.6 °F 75.2 °F 66% 29.96 in 6.2 mi ENE 12.7 mph - N/A   Mostly Cloudy
1:00 PM 87.8 °F 97.6 °F 75.2 °F 66% 29.94 in 6.2 mi ENE 10.4 mph - N/A   Mostly Cloudy
2:00 PM 87.8 °F 99.7 °F 77.0 °F 70% 29.91 in 6.2 mi ENE 10.4 mph - N/A   Scattered Clouds
3:00 PM 87 °F - 76 °F 62% 29.90 in 12 mi ENE 10.4 mph - -   Partly Cloudy
3:00 PM 87.8 °F 97.6 °F 75.2 °F 66% 29.89 in 6.2 mi ENE 10.4 mph - N/A   Scattered Clouds
4:00 PM 86.0 °F 96.9 °F 77.0 °F 74% 29.89 in 6.2 mi ENE 10.4 mph - N/A   Scattered Clouds
5:00 PM 84.2 °F 94.1 °F 77.0 °F 79% 29.90 in 6.2 mi ENE 9.2 mph - N/A   Mostly Cloudy
6:00 PM 84 °F - 75 °F 69% 29.93 in 12 mi NE 8.1 mph - -  
6:00 PM 80.6 °F 87.1 °F 77.0 °F 89% 29.92 in 6.2 mi NE 8.1 mph - N/A   Mostly Cloudy
7:00 PM 84.2 °F 94.1 °F 77.0 °F 79% 29.95 in 6.2 mi NE 9.2 mph - N/A   Scattered Clouds
8:00 PM 84.2 °F 94.1 °F 77.0 °F 79% 29.96 in 6.2 mi NE 9.2 mph - N/A   Scattered Clouds
9:00 PM 83 °F - 76 °F 75% 29.97 in 12 mi NE 8.1 mph - -  
9:00 PM 82.4 °F 90.9 °F 77.0 °F 84% 29.97 in 6.2 mi NE 8.1 mph - N/A   Scattered Clouds
10:00 PM 82.4 °F 90.9 °F 77.0 °F 84% 29.98 in 6.2 mi NNW 6.9 mph - N/A   Mostly Cloudy